This is the latest recevied weather packets stored in our database for station/object DL9GRB-13. If no packets are shown the sender has not sent any weather packets the latest 10 day(s).
| Time | Temp. | Humidity | Pressure | Rain* | Wind** | Luminosity | Snow |
|---|---|---|---|---|---|---|---|
| 1777742347 | 25° C | 33% | 1012.7 hPa | 0 mm | - | 50 W/m² | - |
| 1777742167 | 25° C | 32% | 1012.4 hPa | 0 mm | - | 49 W/m² | - |
| 1777741987 | 25.56° C | 32% | 1012.4 hPa | 0 mm | - | 46 W/m² | - |
| 1777741807 | 25.56° C | 32% | 1012.7 hPa | 0 mm | - | 48 W/m² | - |
| 1777741627 | 25.56° C | 32% | 1012.7 hPa | 0 mm | - | 42 W/m² | - |
| 1777741447 | 25.56° C | 31% | 1012.4 hPa | 0 mm | - | 45 W/m² | - |
| 1777741267 | 26.11° C | 31% | 1012.6 hPa | 0 mm | - | 50 W/m² | - |
| 1777741087 | 26.11° C | 29% | 1012.6 hPa | 0 mm | - | 61 W/m² | - |
| 1777740907 | 26.67° C | 29% | 1012.6 hPa | 0 mm | - | 66 W/m² | - |
| 1777740727 | 26.67° C | 30% | 1012.7 hPa | 0 mm | - | 70 W/m² | - |
| 1777740547 | 26.67° C | 29% | 1012.6 hPa | 0 mm | - | 93 W/m² | - |
| 1777740367 | 26.67° C | 29% | 1012.7 hPa | 0 mm | - | 111 W/m² | - |
| 1777740187 | 26.67° C | 29% | 1012.8 hPa | 0 mm | - | 116 W/m² | - |
| 1777740007 | 26.67° C | 29% | 1012.7 hPa | 0 mm | - | 98 W/m² | - |
| 1777739827 | 26.67° C | 29% | 1012.9 hPa | 0 mm | - | 122 W/m² | - |
| 1777739647 | 27.22° C | 28% | 1012.9 hPa | 0 mm | - | 103 W/m² | - |
| 1777739467 | 27.22° C | 29% | 1012.9 hPa | 0 mm | - | 109 W/m² | - |
| 1777739287 | 27.22° C | 28% | 1012.9 hPa | 0 mm | - | 124 W/m² | - |
| 1777739107 | 27.22° C | 28% | 1012.8 hPa | 0 mm | - | 110 W/m² | - |
| 1777738927 | 27.22° C | 28% | 1013 hPa | 0 mm | - | 127 W/m² | - |
| 1777738747 | 27.22° C | 27% | 1013 hPa | 0 mm | - | 106 W/m² | - |
| 1777738567 | 27.22° C | 27% | 1013.1 hPa | 0 mm | - | 127 W/m² | - |
| 1777738387 | 27.22° C | 27% | 1013.2 hPa | 0 mm | - | 122 W/m² | - |
| 1777738207 | 27.22° C | 27% | 1013.1 hPa | 0 mm | - | 129 W/m² | - |
| 1777738027 | 27.22° C | 28% | 1013.2 hPa | 0 mm | - | 132 W/m² | - |
* Rain latest hour (hover to see other rain measurements)
** Current wind speed in m/s (hover to see current wind gust speed)